Time,TemperatureF,DewpointF,PressureIn,WindDirection,WindDirectionDegrees,WindSpeedMPH,WindSpeedGustMPH,Humidity,HourlyPrecipIn,Conditions,Clouds,dailyrainin,SolarRadiationWatts/m^2,SoftwareType,DateUTC
2013-01-17 00:03:00,23.5,14.1,30.23,WNW,290,5.0,11.0,67,0.00,,,0.00,0,Wunderground v.1.15,2013-01-17 06:03:00,
2013-01-17 00:08:00,23.3,13.6,30.24,NW,315,5.0,14.0,66,0.00,,,0.00,0,Wunderground v.1.15,2013-01-17 06:08:00,
2013-01-17 00:13:00,23.1,13.1,30.24,WNW,296,2.0,8.0,65,0.00,,,0.00,0,Wunderground v.1.15,2013-01-17 06:13:00,
2013-01-17 00:18:00,22.9,12.5,30.24,West,263,7.0,14.0,64,0.00,,,0.00,0,Wunderground v.1.15,2013-01-17 06:18:00,
2013-01-17 00:23:00,22.8,12.1,30.24,West,280,12.0,12.0,63,0.00,,,0.00,0,Wunderground v.1.15,2013-01-17 06:23:00,
2013-01-17 00:28:00,22.7,12.0,30.24,West,281,2.0,13.0,63,0.00,,,0.00,0,Wunderground v.1.15,2013-01-17 06:28:00,
2013-01-17 00:33:00,22.6,11.9,30.24,NW,316,2.0,16.0,63,0.00,,,0.00,0,Wunderground v.1.15,2013-01-17 06:33:00,
2013-01-17 00:38:00,22.4,11.7,30.24,WNW,289,4.0,17.0,63,0.00,,,0.00,0,Wunderground v.1.15,2013-01-17 06:38:00,
2013-01-17 00:43:00,22.2,11.5,30.24,WNW,300,13.0,18.0,63,0.00,,,0.00,0,Wunderground v.1.15,2013-01-17 06:43:00,
2013-01-17 00:48:00,22.1,11.4,30.25,NW,314,7.0,18.0,63,0.00,,,0.00,0,Wunderground v.1.15,2013-01-17 06:48:00,
2013-01-17 00:53:00,21.9,11.2,30.25,WNW,287,9.0,12.0,63,0.00,,,0.00,0,Wunderground v.1.15,2013-01-17 06:53:00,
2013-01-17 00:58:00,21.8,11.1,30.25,NW,304,5.0,14.0,63,0.00,,,0.00,0,Wunderground v.1.15,2013-01-17 06:58:00,
2013-01-17 01:03:00,21.6,10.6,30.25,West,277,9.0,12.0,62,0.00,,,0.00,0,Wunderground v.1.15,2013-01-17 07:03:00,
2013-01-17 01:08:00,21.5,10.5,30.25,WNW,285,7.0,14.0,62,0.00,,,0.00,0,Wunderground v.1.15,2013-01-17 07:08:00,
2013-01-17 01:13:00,21.3,10.7,30.25,NW,304,4.0,13.0,63,0.00,,,0.00,0,Wunderground v.1.15,2013-01-17 07:13:00,
2013-01-17 01:18:00,21.1,10.5,30.25,NW,310,6.0,14.0,63,0.00,,,0.00,0,Wunderground v.1.15,2013-01-17 07:18:00,
2013-01-17 01:23:00,21.0,10.0,30.26,WNW,297,5.0,16.0,62,0.00,,,0.00,0,Wunderground v.1.15,2013-01-17 07:23:00,
2013-01-17 01:28:00,20.8,10.2,30.26,WNW,299,5.0,16.0,63,0.00,,,0.00,0,Wunderground v.1.15,2013-01-17 07:28:00,
2013-01-17 01:33:00,20.7,10.1,30.27,NW,304,12.0,15.0,63,0.00,,,0.00,0,Wunderground v.1.15,2013-01-17 07:33:00,
2013-01-17 01:38:00,20.5,9.9,30.27,WNW,299,6.0,18.0,63,0.00,,,0.00,0,Wunderground v.1.15,2013-01-17 07:38:00,
2013-01-17 01:43:00,20.4,10.1,30.27,West,281,4.0,15.0,64,0.00,,,0.00,0,Wunderground v.1.15,2013-01-17 07:43:00,
2013-01-17 01:48:00,20.3,10.1,30.28,WNW,300,6.0,15.0,64,0.00,,,0.00,0,Wunderground v.1.15,2013-01-17 07:48:00,
2013-01-17 01:53:00,20.0,10.1,30.28,WNW,282,4.0,11.0,65,0.00,,,0.00,0,Wunderground v.1.15,2013-01-17 07:53:00,
2013-01-17 01:58:00,19.9,10.0,30.29,West,271,13.0,13.0,65,0.00,,,0.00,0,Wunderground v.1.15,2013-01-17 07:58:00,
2013-01-17 02:03:00,19.7,10.2,30.30,NW,304,7.0,14.0,66,0.00,,,0.00,0,Wunderground v.1.15,2013-01-17 08:03:00,
2013-01-17 02:08:00,19.6,9.7,30.30,NW,309,8.0,16.0,65,0.00,,,0.00,0,Wunderground v.1.15,2013-01-17 08:08:00,
2013-01-17 02:13:00,19.4,9.9,30.30,NW,305,5.0,13.0,66,0.00,,,0.00,0,Wunderground v.1.15,2013-01-17 08:13:00,
2013-01-17 02:18:00,19.3,9.8,30.30,WNW,299,12.0,15.0,66,0.00,,,0.00,0,Wunderground v.1.15,2013-01-17 08:18:00,
2013-01-17 02:23:00,19.2,9.7,30.30,WNW,287,11.0,16.0,66,0.00,,,0.00,0,Wunderground v.1.15,2013-01-17 08:23:00,
2013-01-17 02:28:00,19.1,9.6,30.32,WNW,295,6.0,16.0,66,0.00,,,0.00,0,Wunderground v.1.15,2013-01-17 08:28:00,
2013-01-17 02:33:00,19.0,9.5,30.32,NW,304,6.0,12.0,66,0.00,,,0.00,0,Wunderground v.1.15,2013-01-17 08:33:00,
2013-01-17 02:38:00,18.8,9.6,30.32,WNW,301,1.0,12.0,67,0.00,,,0.00,0,Wunderground v.1.15,2013-01-17 08:38:00,
2013-01-17 02:44:00,18.7,9.6,30.32,WNW,302,7.0,11.0,67,0.00,,,0.00,0,Wunderground v.1.15,2013-01-17 08:44:00,
2013-01-17 02:49:00,18.5,9.4,30.31,WNW,296,6.0,11.0,67,0.00,,,0.00,0,Wunderground v.1.15,2013-01-17 08:49:00,
2013-01-17 02:54:00,18.3,9.5,30.32,NW,315,4.0,9.0,68,0.00,,,0.00,0,Wunderground v.1.15,2013-01-17 08:54:00,
2013-01-17 02:59:00,18.1,9.3,30.32,WNW,296,2.0,9.0,68,0.00,,,0.00,0,Wunderground v.1.15,2013-01-17 08:59:00,
2013-01-17 03:04:00,18.0,9.2,30.33,WNW,287,4.0,11.0,68,0.00,,,0.00,0,Wunderground v.1.15,2013-01-17 09:04:00,
2013-01-17 03:09:00,17.9,9.1,30.33,West,272,7.0,12.0,68,0.00,,,0.00,0,Wunderground v.1.15,2013-01-17 09:09:00,
2013-01-17 03:14:00,17.8,9.0,30.33,West,275,11.0,11.0,68,0.00,,,0.00,0,Wunderground v.1.15,2013-01-17 09:14:00,
2013-01-17 03:19:00,17.6,9.2,30.33,WNW,290,6.0,12.0,69,0.00,,,0.00,0,Wunderground v.1.15,2013-01-17 09:19:00,
2013-01-17 03:24:00,17.5,9.1,30.33,NW,318,5.0,11.0,69,0.00,,,0.00,0,Wunderground v.1.15,2013-01-17 09:24:00,
2013-01-17 03:29:00,17.4,9.0,30.33,WNW,300,4.0,12.0,69,0.00,,,0.00,0,Wunderground v.1.15,2013-01-17 09:29:00,
2013-01-17 03:34:00,17.2,9.1,30.33,WNW,298,2.0,8.0,70,0.00,,,0.00,0,Wunderground v.1.15,2013-01-17 09:34:00,
2013-01-17 03:39:00,17.1,9.0,30.33,West,275,4.0,12.0,70,0.00,,,0.00,0,Wunderground v.1.15,2013-01-17 09:39:00,
2013-01-17 03:44:00,16.9,8.8,30.33,NW,307,5.0,8.0,70,0.00,,,0.00,0,Wunderground v.1.15,2013-01-17 09:44:00,
2013-01-17 03:49:00,16.7,8.6,30.33,WNW,286,6.0,11.0,70,0.00,,,0.00,0,Wunderground v.1.15,2013-01-17 09:49:00,
2013-01-17 03:54:00,16.7,8.9,30.34,West,281,4.0,6.0,71,0.00,,,0.00,0,Wunderground v.1.15,2013-01-17 09:54:00,
2013-01-17 03:59:00,16.5,8.7,30.35,West,281,0.0,8.0,71,0.00,,,0.00,0,Wunderground v.1.15,2013-01-17 09:59:00,
2013-01-17 04:04:00,16.3,8.9,30.34,West,277,1.0,5.0,72,0.00,,,0.00,0,Wunderground v.1.15,2013-01-17 10:04:00,
2013-01-17 04:09:00,16.0,8.9,30.35,West,277,0.0,5.0,73,0.00,,,0.00,0,Wunderground v.1.15,2013-01-17 10:09:00,
2013-01-17 04:14:00,15.7,8.6,30.35,West,277,1.0,2.0,73,0.00,,,0.00,0,Wunderground v.1.15,2013-01-17 10:14:00,
2013-01-17 04:19:00,15.5,8.7,30.35,West,270,0.0,5.0,74,0.00,,,0.00,0,Wunderground v.1.15,2013-01-17 10:19:00,
2013-01-17 04:24:00,15.3,8.5,30.35,West,270,0.0,0.0,74,0.00,,,0.00,0,Wunderground v.1.15,2013-01-17 10:24:00,
2013-01-17 04:29:00,15.0,8.2,30.35,West,270,0.0,2.0,74,0.00,,,0.00,0,Wunderground v.1.15,2013-01-17 10:29:00,
2013-01-17 04:34:00,14.8,8.3,30.35,West,270,1.0,4.0,75,0.00,,,0.00,0,Wunderground v.1.15,2013-01-17 10:34:00,
2013-01-17 04:39:00,14.7,7.9,30.35,West,269,1.0,4.0,74,0.00,,,0.00,0,Wunderground v.1.15,2013-01-17 10:39:00,
2013-01-17 04:44:00,14.7,8.2,30.36,WSW,238,1.0,6.0,75,0.00,,,0.00,0,Wunderground v.1.15,2013-01-17 10:44:00,
2013-01-17 04:49:00,14.7,7.9,30.37,WSW,258,3.0,6.0,74,0.00,,,0.00,0,Wunderground v.1.15,2013-01-17 10:49:00,
2013-01-17 04:54:00,14.7,7.9,30.37,WSW,253,1.0,6.0,74,0.00,,,0.00,0,Wunderground v.1.15,2013-01-17 10:54:00,
2013-01-17 04:59:00,14.6,7.8,30.37,WSW,254,3.0,6.0,74,0.00,,,0.00,0,Wunderground v.1.15,2013-01-17 10:59:00,
2013-01-17 05:04:00,14.6,7.8,30.37,WSW,254,2.0,2.0,74,0.00,,,0.00,0,Wunderground v.1.15,2013-01-17 11:04:00,
2013-01-17 05:09:00,14.4,7.6,30.37,WSW,254,1.0,2.0,74,0.00,,,0.00,0,Wunderground v.1.15,2013-01-17 11:09:00,
2013-01-17 05:14:00,14.2,7.7,30.37,WSW,254,1.0,1.0,75,0.00,,,0.00,0,Wunderground v.1.15,2013-01-17 11:14:00,
2013-01-17 05:19:00,14.1,7.6,30.37,West,273,1.0,5.0,75,0.00,,,0.00,0,Wunderground v.1.15,2013-01-17 11:19:00,
2013-01-17 05:24:00,14.0,7.5,30.37,West,273,1.0,4.0,75,0.00,,,0.00,0,Wunderground v.1.15,2013-01-17 11:24:00,
2013-01-17 05:29:00,13.9,7.4,30.38,West,273,0.0,5.0,75,0.00,,,0.00,0,Wunderground v.1.15,2013-01-17 11:29:00,
2013-01-17 05:34:00,13.8,7.3,30.38,West,266,1.0,4.0,75,0.00,,,0.00,0,Wunderground v.1.15,2013-01-17 11:34:00,
2013-01-17 05:39:00,13.7,7.2,30.38,West,268,1.0,6.0,75,0.00,,,0.00,0,Wunderground v.1.15,2013-01-17 11:39:00,
2013-01-17 05:44:00,13.6,7.1,30.39,WNW,284,4.0,7.0,75,0.00,,,0.00,0,Wunderground v.1.15,2013-01-17 11:44:00,
2013-01-17 05:49:00,13.6,7.1,30.39,West,274,0.0,7.0,75,0.00,,,0.00,0,Wunderground v.1.15,2013-01-17 11:49:00,
2013-01-17 05:54:00,13.6,6.8,30.39,WSW,238,6.0,6.0,74,0.00,,,0.00,0,Wunderground v.1.15,2013-01-17 11:54:00,
2013-01-17 05:59:00,13.6,6.8,30.39,West,266,1.0,6.0,74,0.00,,,0.00,0,Wunderground v.1.15,2013-01-17 11:59:00,
2013-01-17 06:04:00,13.6,6.8,30.39,WNW,286,2.0,6.0,74,0.00,,,0.00,0,Wunderground v.1.15,2013-01-17 12:04:00,
2013-01-17 06:09:00,13.6,6.5,30.40,WNW,286,4.0,6.0,73,0.00,,,0.00,0,Wunderground v.1.15,2013-01-17 12:09:00,
2013-01-17 06:14:00,13.5,6.8,30.40,WNW,286,0.0,5.0,74,0.00,,,0.00,0,Wunderground v.1.15,2013-01-17 12:14:00,
2013-01-17 06:19:00,13.3,6.9,30.39,West,273,0.0,6.0,75,0.00,,,0.00,0,Wunderground v.1.15,2013-01-17 12:19:00,
2013-01-17 06:24:00,13.1,6.7,30.40,WNW,285,1.0,7.0,75,0.00,,,0.00,0,Wunderground v.1.15,2013-01-17 12:24:00,
2013-01-17 06:29:00,13.0,6.6,30.40,WNW,296,6.0,7.0,75,0.00,,,0.00,0,Wunderground v.1.15,2013-01-17 12:29:00,
2013-01-17 06:34:00,13.1,6.4,30.41,WNW,286,7.0,11.0,74,0.00,,,0.00,0,Wunderground v.1.15,2013-01-17 12:34:00,
2013-01-17 06:39:00,13.2,6.2,30.41,WNW,293,6.0,11.0,73,0.00,,,0.00,0,Wunderground v.1.15,2013-01-17 12:39:00,
2013-01-17 06:44:00,13.2,6.2,30.41,WNW,294,0.0,7.0,73,0.00,,,0.00,0,Wunderground v.1.15,2013-01-17 12:44:00,
2013-01-17 06:49:00,13.0,6.3,30.41,WNW,294,1.0,7.0,74,0.00,,,0.00,0,Wunderground v.1.15,2013-01-17 12:49:00,
2013-01-17 06:54:00,12.9,6.2,30.42,West,274,2.0,10.0,74,0.00,,,0.00,0,Wunderground v.1.15,2013-01-17 12:54:00,
2013-01-17 06:59:00,12.8,6.4,30.43,WNW,290,0.0,10.0,75,0.00,,,0.00,0,Wunderground v.1.15,2013-01-17 12:59:00,
2013-01-17 07:04:00,12.7,6.3,30.43,West,281,0.0,5.0,75,0.00,,,0.00,0,Wunderground v.1.15,2013-01-17 13:04:00,
2013-01-17 07:09:00,12.5,6.1,30.43,West,281,0.0,5.0,75,0.00,,,0.00,0,Wunderground v.1.15,2013-01-17 13:09:00,
2013-01-17 07:14:00,12.3,6.2,30.43,WNW,282,2.0,5.0,76,0.00,,,0.00,0,Wunderground v.1.15,2013-01-17 13:14:00,
2013-01-17 07:19:00,12.2,6.1,30.43,West,273,1.0,5.0,76,0.00,,,0.00,0,Wunderground v.1.15,2013-01-17 13:19:00,
2013-01-17 07:24:00,12.1,6.0,30.43,West,281,0.0,4.0,76,0.00,,,0.00,5,Wunderground v.1.15,2013-01-17 13:24:00,
2013-01-17 07:29:00,12.0,5.9,30.43,WNW,282,0.0,5.0,76,0.00,,,0.00,7,Wunderground v.1.15,2013-01-17 13:29:00,
2013-01-17 07:34:00,11.8,6.0,30.43,WNW,282,0.0,1.0,77,0.00,,,0.00,11,Wunderground v.1.15,2013-01-17 13:34:00,
2013-01-17 07:39:00,11.7,5.9,30.44,WNW,282,0.0,2.0,77,0.00,,,0.00,12,Wunderground v.1.15,2013-01-17 13:39:00,
2013-01-17 07:44:00,11.6,5.8,30.44,WNW,282,2.0,2.0,77,0.00,,,0.00,16,Wunderground v.1.15,2013-01-17 13:44:00,
2013-01-17 07:49:00,11.6,5.8,30.44,WNW,282,1.0,2.0,77,0.00,,,0.00,21,Wunderground v.1.15,2013-01-17 13:49:00,
2013-01-17 07:54:00,11.6,5.8,30.44,WNW,282,0.0,5.0,77,0.00,,,0.00,23,Wunderground v.1.15,2013-01-17 13:54:00,
2013-01-17 07:59:00,11.7,5.9,30.44,West,269,3.0,7.0,77,0.00,,,0.00,28,Wunderground v.1.15,2013-01-17 13:59:00,
2013-01-17 08:04:00,11.9,5.8,30.45,WNW,294,1.0,6.0,76,0.00,,,0.00,33,Wunderground v.1.15,2013-01-17 14:04:00,
2013-01-17 08:09:00,12.2,5.8,30.45,WNW,301,1.0,7.0,75,0.00,,,0.00,46,Wunderground v.1.15,2013-01-17 14:09:00,
2013-01-17 08:14:00,12.5,6.1,30.45,WNW,284,0.0,9.0,75,0.00,,,0.00,91,Wunderground v.1.15,2013-01-17 14:14:00,
2013-01-17 08:19:00,12.8,6.1,30.45,West,275,0.0,11.0,74,0.00,,,0.00,107,Wunderground v.1.15,2013-01-17 14:19:00,
2013-01-17 08:24:00,13.1,6.7,30.46,West,280,1.0,8.0,75,0.00,,,0.00,120,Wunderground v.1.15,2013-01-17 14:24:00,
2013-01-17 08:29:00,13.3,6.6,30.46,WNW,284,1.0,8.0,74,0.00,,,0.00,137,Wunderground v.1.15,2013-01-17 14:29:00,
2013-01-17 08:34:00,13.5,6.5,30.47,West,266,3.0,7.0,73,0.00,,,0.00,153,Wunderground v.1.15,2013-01-17 14:34:00,
2013-01-17 08:39:00,13.7,6.0,30.47,WNW,291,1.0,11.0,71,0.00,,,0.00,169,Wunderground v.1.15,2013-01-17 14:39:00,
2013-01-17 08:44:00,13.9,6.2,30.47,West,271,5.0,6.0,71,0.00,,,0.00,181,Wunderground v.1.15,2013-01-17 14:44:00,
2013-01-17 08:49:00,14.0,6.0,30.47,NW,309,1.0,9.0,70,0.00,,,0.00,195,Wunderground v.1.15,2013-01-17 14:49:00,
2013-01-17 08:54:00,14.1,5.8,30.48,WNW,284,1.0,9.0,69,0.00,,,0.00,211,Wunderground v.1.15,2013-01-17 14:54:00,
2013-01-17 08:59:00,14.2,5.9,30.48,West,265,3.0,13.0,69,0.00,,,0.00,223,Wunderground v.1.15,2013-01-17 14:59:00,
2013-01-17 09:04:00,14.2,5.6,30.48,WNW,299,5.0,13.0,68,0.00,,,0.00,241,Wunderground v.1.15,2013-01-17 15:04:00,
2013-01-17 09:09:00,14.3,5.3,30.48,WNW,282,4.0,13.0,67,0.00,,,0.00,243,Wunderground v.1.15,2013-01-17 15:09:00,
2013-01-17 09:14:00,14.4,4.8,30.48,West,263,4.0,15.0,65,0.00,,,0.00,255,Wunderground v.1.15,2013-01-17 15:14:00,
2013-01-17 09:19:00,14.4,4.1,30.48,West,280,4.0,15.0,63,0.00,,,0.00,265,Wunderground v.1.15,2013-01-17 15:19:00,
2013-01-17 09:24:00,14.6,4.6,30.49,WNW,301,14.0,15.0,64,0.00,,,0.00,278,Wunderground v.1.15,2013-01-17 15:24:00,
2013-01-17 09:29:00,14.8,4.1,30.48,NW,315,8.0,15.0,62,0.00,,,0.00,288,Wunderground v.1.15,2013-01-17 15:29:00,
2013-01-17 09:34:00,14.8,3.4,30.49,West,259,6.0,15.0,60,0.00,,,0.00,297,Wunderground v.1.15,2013-01-17 15:34:00,
2013-01-17 09:39:00,14.9,3.5,30.49,West,263,3.0,15.0,60,0.00,,,0.00,308,Wunderground v.1.15,2013-01-17 15:39:00,
2013-01-17 09:44:00,15.0,3.6,30.49,WNW,288,5.0,13.0,60,0.00,,,0.00,320,Wunderground v.1.15,2013-01-17 15:44:00,
2013-01-17 09:49:00,15.1,2.6,30.49,West,281,14.0,16.0,57,0.00,,,0.00,330,Wunderground v.1.15,2013-01-17 15:49:00,
2013-01-17 09:54:00,15.2,3.1,30.49,NW,315,7.0,13.0,58,0.00,,,0.00,341,Wunderground v.1.15,2013-01-17 15:54:00,
2013-01-17 09:59:00,15.5,2.6,30.49,WNW,296,6.0,13.0,56,0.00,,,0.00,352,Wunderground v.1.15,2013-01-17 15:59:00,
2013-01-17 10:04:00,15.5,2.6,30.50,NW,317,7.0,12.0,56,0.00,,,0.00,359,Wunderground v.1.15,2013-01-17 16:04:00,
2013-01-17 10:09:00,15.6,3.4,30.50,WNW,288,5.0,12.0,58,0.00,,,0.00,369,Wunderground v.1.15,2013-01-17 16:09:00,
2013-01-17 10:14:00,15.9,2.6,30.50,WNW,286,2.0,12.0,55,0.00,,,0.00,376,Wunderground v.1.15,2013-01-17 16:14:00,
2013-01-17 10:19:00,16.3,3.3,30.50,WNW,293,8.0,12.0,56,0.00,,,0.00,387,Wunderground v.1.15,2013-01-17 16:19:00,
2013-01-17 10:24:00,16.4,2.6,30.50,West,279,6.0,13.0,54,0.00,,,0.00,403,Wunderground v.1.15,2013-01-17 16:24:00,
2013-01-17 10:29:00,16.6,2.4,30.50,West,263,6.0,16.0,53,0.00,,,0.00,287,Wunderground v.1.15,2013-01-17 16:29:00,
2013-01-17 10:34:00,16.7,2.1,30.50,West,262,7.0,11.0,52,0.00,,,0.00,411,Wunderground v.1.15,2013-01-17 16:34:00,
2013-01-17 10:39:00,16.8,3.0,30.50,West,279,8.0,11.0,54,0.00,,,0.00,417,Wunderground v.1.15,2013-01-17 16:39:00,
2013-01-17 10:44:00,17.1,3.3,30.50,WSW,252,8.0,11.0,54,0.00,,,0.00,424,Wunderground v.1.15,2013-01-17 16:44:00,
2013-01-17 10:49:00,16.9,2.3,30.50,West,277,2.0,11.0,52,0.00,,,0.00,436,Wunderground v.1.15,2013-01-17 16:49:00,
2013-01-17 10:54:00,17.0,2.4,30.50,WSW,248,8.0,15.0,52,0.00,,,0.00,485,Wunderground v.1.15,2013-01-17 16:54:00,
2013-01-17 10:59:00,17.3,3.9,30.50,WNW,289,5.0,15.0,55,0.00,,,0.00,457,Wunderground v.1.15,2013-01-17 16:59:00,
2013-01-17 11:04:00,17.5,2.8,30.50,WNW,282,1.0,12.0,52,0.00,,,0.00,476,Wunderground v.1.15,2013-01-17 17:04:00,
2013-01-17 11:09:00,17.6,3.3,30.50,West,274,2.0,13.0,53,0.00,,,0.00,473,Wunderground v.1.15,2013-01-17 17:09:00,
2013-01-17 11:14:00,17.8,3.1,30.50,NW,311,8.0,13.0,52,0.00,,,0.00,466,Wunderground v.1.15,2013-01-17 17:14:00,
2013-01-17 11:19:00,17.7,3.0,30.50,WNW,295,1.0,19.0,52,0.00,,,0.00,504,Wunderground v.1.15,2013-01-17 17:19:00,
2013-01-17 11:24:00,17.9,3.6,30.49,West,259,14.0,15.0,53,0.00,,,0.00,545,Wunderground v.1.15,2013-01-17 17:24:00,
2013-01-17 11:29:00,18.1,3.8,30.49,WNW,299,4.0,15.0,53,0.00,,,0.00,454,Wunderground v.1.15,2013-01-17 17:29:00,
2013-01-17 11:34:00,18.0,3.3,30.49,WNW,288,4.0,12.0,52,0.00,,,0.00,492,Wunderground v.1.15,2013-01-17 17:34:00,
2013-01-17 11:39:00,18.2,3.1,30.49,WNW,291,1.0,14.0,51,0.00,,,0.00,547,Wunderground v.1.15,2013-01-17 17:39:00,
2013-01-17 11:44:00,18.3,3.2,30.49,WNW,289,6.0,13.0,51,0.00,,,0.00,343,Wunderground v.1.15,2013-01-17 17:44:00,
2013-01-17 11:49:00,18.2,3.5,30.49,NW,313,6.0,13.0,52,0.00,,,0.00,399,Wunderground v.1.15,2013-01-17 17:49:00,
2013-01-17 11:54:00,18.3,2.7,30.48,West,259,6.0,17.0,50,0.00,,,0.00,464,Wunderground v.1.15,2013-01-17 17:54:00,
2013-01-17 11:59:00,18.2,3.1,30.48,NW,311,5.0,17.0,51,0.00,,,0.00,287,Wunderground v.1.15,2013-01-17 17:59:00,
2013-01-17 12:04:00,18.4,3.3,30.47,WSW,252,1.0,8.0,51,0.00,,,0.00,464,Wunderground v.1.15,2013-01-17 18:04:00,
2013-01-17 12:09:00,18.7,3.5,30.47,WSW,240,4.0,11.0,51,0.00,,,0.00,385,Wunderground v.1.15,2013-01-17 18:09:00,
2013-01-17 12:14:00,18.9,2.9,30.47,West,265,4.0,11.0,49,0.00,,,0.00,417,Wunderground v.1.15,2013-01-17 18:14:00,
2013-01-17 12:19:00,19.0,3.4,30.47,WSW,248,4.0,14.0,50,0.00,,,0.00,436,Wunderground v.1.15,2013-01-17 18:19:00,
2013-01-17 12:24:00,19.1,4.3,30.46,WSW,252,4.0,8.0,52,0.00,,,0.00,490,Wunderground v.1.15,2013-01-17 18:24:00,
2013-01-17 12:29:00,19.5,4.3,30.46,SW,231,8.0,12.0,51,0.00,,,0.00,494,Wunderground v.1.15,2013-01-17 18:29:00,
2013-01-17 12:34:00,19.6,3.1,30.46,SW,236,6.0,13.0,48,0.00,,,0.00,510,Wunderground v.1.15,2013-01-17 18:34:00,
2013-01-17 12:39:00,19.7,4.0,30.45,West,278,4.0,14.0,50,0.00,,,0.00,506,Wunderground v.1.15,2013-01-17 18:39:00,
2013-01-17 12:44:00,19.8,3.7,30.45,WSW,238,6.0,12.0,49,0.00,,,0.00,503,Wunderground v.1.15,2013-01-17 18:44:00,
2013-01-17 12:49:00,20.0,3.9,30.45,WSW,255,2.0,12.0,49,0.00,,,0.00,476,Wunderground v.1.15,2013-01-17 18:49:00,
2013-01-17 12:54:00,20.2,3.6,30.44,SW,234,6.0,15.0,48,0.00,,,0.00,469,Wunderground v.1.15,2013-01-17 18:54:00,
2013-01-17 12:59:00,20.2,3.6,30.44,SW,222,11.0,15.0,48,0.00,,,0.00,468,Wunderground v.1.15,2013-01-17 18:59:00,
2013-01-17 13:04:00,20.1,4.0,30.44,SSW,213,7.0,15.0,49,0.00,,,0.00,457,Wunderground v.1.15,2013-01-17 19:04:00,
2013-01-17 13:09:00,20.3,4.6,30.44,WSW,237,12.0,20.0,50,0.00,,,0.00,452,Wunderground v.1.15,2013-01-17 19:09:00,
2013-01-17 13:14:00,20.4,4.7,30.45,West,262,8.0,14.0,50,0.00,,,0.00,445,Wunderground v.1.15,2013-01-17 19:14:00,
2013-01-17 13:19:00,20.7,5.4,30.45,WSW,250,8.0,18.0,51,0.00,,,0.00,439,Wunderground v.1.15,2013-01-17 19:19:00,
2013-01-17 13:24:00,21.1,5.3,30.45,SW,234,10.0,14.0,50,0.00,,,0.00,434,Wunderground v.1.15,2013-01-17 19:24:00,
2013-01-17 13:29:00,21.1,5.8,30.45,WSW,253,5.0,16.0,51,0.00,,,0.00,431,Wunderground v.1.15,2013-01-17 19:29:00,
2013-01-17 13:34:00,21.3,5.5,30.45,WSW,253,3.0,17.0,50,0.00,,,0.00,424,Wunderground v.1.15,2013-01-17 19:34:00,
2013-01-17 13:39:00,21.3,6.0,30.45,SW,234,11.0,17.0,51,0.00,,,0.00,418,Wunderground v.1.15,2013-01-17 19:39:00,
2013-01-17 13:44:00,21.0,5.7,30.45,WSW,248,6.0,15.0,51,0.00,,,0.00,410,Wunderground v.1.15,2013-01-17 19:44:00,
2013-01-17 13:49:00,21.2,6.3,30.45,West,272,0.0,16.0,52,0.00,,,0.00,403,Wunderground v.1.15,2013-01-17 19:49:00,
2013-01-17 13:54:00,21.6,6.2,30.45,WSW,238,8.0,18.0,51,0.00,,,0.00,394,Wunderground v.1.15,2013-01-17 19:54:00,
2013-01-17 13:59:00,21.8,6.4,30.45,WNW,296,6.0,18.0,51,0.00,,,0.00,387,Wunderground v.1.15,2013-01-17 19:59:00,
2013-01-17 14:04:00,22.2,7.2,30.45,WSW,256,11.0,13.0,52,0.00,,,0.00,380,Wunderground v.1.15,2013-01-17 20:04:00,
2013-01-17 14:09:00,22.3,6.9,30.44,WNW,286,4.0,15.0,51,0.00,,,0.00,371,Wunderground v.1.15,2013-01-17 20:09:00,
2013-01-17 14:14:00,22.2,6.4,30.44,WNW,296,13.0,18.0,50,0.00,,,0.00,362,Wunderground v.1.15,2013-01-17 20:14:00,
2013-01-17 14:19:00,22.3,7.3,30.44,West,281,7.0,18.0,52,0.00,,,0.00,352,Wunderground v.1.15,2013-01-17 20:19:00,
2013-01-17 14:24:00,22.4,6.1,30.45,NW,306,15.0,20.0,49,0.00,,,0.00,341,Wunderground v.1.15,2013-01-17 20:24:00,
2013-01-17 14:29:00,22.1,6.3,30.45,WNW,301,9.0,20.0,50,0.00,,,0.00,330,Wunderground v.1.15,2013-01-17 20:29:00,
2013-01-17 14:34:00,21.9,6.1,30.45,WNW,303,12.0,16.0,50,0.00,,,0.00,320,Wunderground v.1.15,2013-01-17 20:34:00,
2013-01-17 14:39:00,21.9,6.5,30.45,WNW,296,7.0,16.0,51,0.00,,,0.00,309,Wunderground v.1.15,2013-01-17 20:39:00,
2013-01-17 14:44:00,22.0,6.2,30.45,WSW,242,11.0,14.0,50,0.00,,,0.00,301,Wunderground v.1.15,2013-01-17 20:44:00,
2013-01-17 14:49:00,22.0,7.0,30.45,NNW,348,8.0,14.0,52,0.00,,,0.00,290,Wunderground v.1.15,2013-01-17 20:49:00,
2013-01-17 14:54:00,22.0,6.2,30.45,West,277,5.0,17.0,50,0.00,,,0.00,278,Wunderground v.1.15,2013-01-17 20:54:00,
2013-01-17 14:59:00,22.0,6.6,30.45,West,281,2.0,17.0,51,0.00,,,0.00,265,Wunderground v.1.15,2013-01-17 20:59:00,
2013-01-17 15:04:00,22.2,6.8,30.45,West,275,7.0,19.0,51,0.00,,,0.00,253,Wunderground v.1.15,2013-01-17 21:04:00,
2013-01-17 15:09:00,22.0,6.2,30.45,WNW,298,11.0,19.0,50,0.00,,,0.00,243,Wunderground v.1.15,2013-01-17 21:09:00,
2013-01-17 15:14:00,22.0,6.6,30.45,WSW,248,5.0,18.0,51,0.00,,,0.00,244,Wunderground v.1.15,2013-01-17 21:14:00,
2013-01-17 15:19:00,22.2,7.2,30.45,WNW,284,7.0,18.0,52,0.00,,,0.00,160,Wunderground v.1.15,2013-01-17 21:19:00,
2013-01-17 15:24:00,22.2,7.2,30.45,NW,311,2.0,9.0,52,0.00,,,0.00,206,Wunderground v.1.15,2013-01-17 21:24:00,
2013-01-17 15:29:00,22.3,7.3,30.45,WNW,301,5.0,11.0,52,0.00,,,0.00,179,Wunderground v.1.15,2013-01-17 21:29:00,
2013-01-17 15:34:00,22.3,6.9,30.45,WNW,292,7.0,12.0,51,0.00,,,0.00,88,Wunderground v.1.15,2013-01-17 21:34:00,
2013-01-17 15:39:00,22.0,6.6,30.45,WNW,297,9.0,13.0,51,0.00,,,0.00,88,Wunderground v.1.15,2013-01-17 21:39:00,
2013-01-17 15:44:00,22.0,7.0,30.46,WNW,301,8.0,12.0,52,0.00,,,0.00,160,Wunderground v.1.15,2013-01-17 21:44:00,
2013-01-17 15:49:00,21.8,7.3,30.46,WNW,291,2.0,13.0,53,0.00,,,0.00,49,Wunderground v.1.15,2013-01-17 21:49:00,
2013-01-17 15:54:00,21.6,7.1,30.46,West,262,1.0,13.0,53,0.00,,,0.00,67,Wunderground v.1.15,2013-01-17 21:54:00,
2013-01-17 15:59:00,21.6,7.1,30.46,WNW,298,4.0,13.0,53,0.00,,,0.00,113,Wunderground v.1.15,2013-01-17 21:59:00,
2013-01-17 16:04:00,21.8,8.5,30.46,WNW,293,1.0,13.0,56,0.00,,,0.00,44,Wunderground v.1.15,2013-01-17 22:04:00,
2013-01-17 16:09:00,21.9,8.6,30.46,WNW,282,5.0,13.0,56,0.00,,,0.00,40,Wunderground v.1.15,2013-01-17 22:09:00,
2013-01-17 16:14:00,21.7,7.6,30.46,WSW,242,2.0,10.0,54,0.00,,,0.00,44,Wunderground v.1.15,2013-01-17 22:14:00,
2013-01-17 16:19:00,21.8,8.1,30.46,West,271,5.0,10.0,55,0.00,,,0.00,44,Wunderground v.1.15,2013-01-17 22:19:00,
2013-01-17 16:24:00,21.7,8.4,30.46,WNW,290,5.0,10.0,56,0.00,,,0.00,23,Wunderground v.1.15,2013-01-17 22:24:00,
2013-01-17 16:29:00,21.6,7.9,30.47,WNW,297,1.0,10.0,55,0.00,,,0.00,16,Wunderground v.1.15,2013-01-17 22:29:00,
2013-01-17 16:34:00,21.4,8.1,30.47,WNW,286,1.0,9.0,56,0.00,,,0.00,12,Wunderground v.1.15,2013-01-17 22:34:00,
2013-01-17 16:39:00,21.3,8.0,30.46,West,271,1.0,9.0,56,0.00,,,0.00,9,Wunderground v.1.15,2013-01-17 22:39:00,
2013-01-17 16:44:00,21.1,8.2,30.47,West,278,1.0,12.0,57,0.00,,,0.00,7,Wunderground v.1.15,2013-01-17 22:44:00,
2013-01-17 16:49:00,21.0,8.5,30.47,WNW,302,2.0,12.0,58,0.00,,,0.00,5,Wunderground v.1.15,2013-01-17 22:49:00,
2013-01-17 16:54:00,20.9,8.0,30.47,NW,312,11.0,14.0,57,0.00,,,0.00,0,Wunderground v.1.15,2013-01-17 22:54:00,
2013-01-17 16:59:00,20.9,8.4,30.47,West,277,7.0,15.0,58,0.00,,,0.00,0,Wunderground v.1.15,2013-01-17 22:59:00,
2013-01-17 17:04:00,20.8,9.1,30.48,WNW,291,7.0,11.0,60,0.00,,,0.00,0,Wunderground v.1.15,2013-01-17 23:04:00,
2013-01-17 17:09:00,20.7,9.0,30.48,WNW,284,2.0,12.0,60,0.00,,,0.00,0,Wunderground v.1.15,2013-01-17 23:09:00,
2013-01-17 17:14:00,20.6,9.3,30.48,West,269,4.0,12.0,61,0.00,,,0.00,0,Wunderground v.1.15,2013-01-17 23:14:00,
2013-01-17 17:19:00,20.4,9.1,30.48,WNW,284,7.0,15.0,61,0.00,,,0.00,0,Wunderground v.1.15,2013-01-17 23:19:00,
2013-01-17 17:24:00,20.2,9.2,30.48,WNW,290,2.0,7.0,62,0.00,,,0.00,0,Wunderground v.1.15,2013-01-17 23:24:00,
2013-01-17 17:29:00,20.0,9.1,30.48,WNW,286,4.0,11.0,62,0.00,,,0.00,0,Wunderground v.1.15,2013-01-17 23:29:00,
2013-01-17 17:34:00,19.8,8.9,30.48,WNW,289,2.0,9.0,62,0.00,,,0.00,0,Wunderground v.1.15,2013-01-17 23:34:00,
2013-01-17 17:39:00,19.6,8.7,30.48,West,281,0.0,11.0,62,0.00,,,0.00,0,Wunderground v.1.15,2013-01-17 23:39:00,
2013-01-17 17:44:00,19.4,8.8,30.48,West,277,6.0,11.0,63,0.00,,,0.00,0,Wunderground v.1.15,2013-01-17 23:44:00,
2013-01-17 17:49:00,19.3,8.8,30.48,West,278,1.0,11.0,63,0.00,,,0.00,0,Wunderground v.1.15,2013-01-17 23:49:00,
2013-01-17 17:54:00,19.1,8.9,30.48,WNW,290,6.0,9.0,64,0.00,,,0.00,0,Wunderground v.1.15,2013-01-17 23:54:00,
2013-01-17 17:59:00,18.9,8.7,30.49,WNW,290,5.0,9.0,64,0.00,,,0.00,0,Wunderground v.1.15,2013-01-17 23:59:00,
2013-01-17 18:04:00,18.8,8.6,30.49,WNW,298,4.0,8.0,64,0.00,,,0.00,0,Wunderground v.1.15,2013-01-18 00:04:00,
2013-01-17 18:09:00,18.6,8.4,30.49,WNW,286,1.0,8.0,64,0.00,,,0.00,0,Wunderground v.1.15,2013-01-18 00:09:00,
2013-01-17 18:14:00,18.4,8.6,30.49,West,279,2.0,8.0,65,0.00,,,0.00,0,Wunderground v.1.15,2013-01-18 00:14:00,
2013-01-17 18:19:00,18.3,8.5,30.49,WNW,291,0.0,8.0,65,0.00,,,0.00,0,Wunderground v.1.15,2013-01-18 00:19:00,
2013-01-17 18:24:00,18.2,8.4,30.49,WNW,291,0.0,5.0,65,0.00,,,0.00,0,Wunderground v.1.15,2013-01-18 00:24:00,
2013-01-17 18:30:00,18.0,8.5,30.49,WNW,291,0.0,1.0,66,0.00,,,0.00,0,Wunderground v.1.15,2013-01-18 00:30:00,
2013-01-17 18:35:00,17.9,8.5,30.49,WNW,290,1.0,4.0,66,0.00,,,0.00,0,Wunderground v.1.15,2013-01-18 00:35:00,
2013-01-17 18:40:00,17.8,8.4,30.50,WNW,290,0.0,1.0,66,0.00,,,0.00,0,Wunderground v.1.15,2013-01-18 00:40:00,
2013-01-17 18:45:00,17.6,8.5,30.50,WNW,290,1.0,2.0,67,0.00,,,0.00,0,Wunderground v.1.15,2013-01-18 00:45:00,
2013-01-17 18:50:00,17.4,8.3,30.50,WNW,291,1.0,4.0,67,0.00,,,0.00,0,Wunderground v.1.15,2013-01-18 00:50:00,
2013-01-17 18:55:00,17.2,8.1,30.50,WNW,290,1.0,4.0,67,0.00,,,0.00,0,Wunderground v.1.15,2013-01-18 00:55:00,
2013-01-17 19:00:00,17.0,8.3,30.51,WNW,291,0.0,1.0,68,0.00,,,0.00,0,Wunderground v.1.15,2013-01-18 01:00:00,
2013-01-17 19:05:00,16.7,8.0,30.51,WNW,290,0.0,2.0,68,0.00,,,0.00,0,Wunderground v.1.15,2013-01-18 01:05:00,
2013-01-17 19:10:00,16.3,7.9,30.51,WNW,290,0.0,0.0,69,0.00,,,0.00,0,Wunderground v.1.15,2013-01-18 01:10:00,
2013-01-17 19:15:00,15.9,7.8,30.51,WNW,290,0.0,1.0,70,0.00,,,0.00,0,Wunderground v.1.15,2013-01-18 01:15:00,
2013-01-17 19:20:00,15.6,7.6,30.51,WNW,291,0.0,0.0,70,0.00,,,0.00,0,Wunderground v.1.15,2013-01-18 01:20:00,
2013-01-17 19:25:00,15.3,7.6,30.51,WNW,291,0.0,0.0,71,0.00,,,0.00,0,Wunderground v.1.15,2013-01-18 01:25:00,
2013-01-17 19:30:00,15.0,7.6,30.51,WNW,291,0.0,1.0,72,0.00,,,0.00,0,Wunderground v.1.15,2013-01-18 01:30:00,
2013-01-17 19:35:00,14.8,7.4,30.51,WNW,290,0.0,1.0,72,0.00,,,0.00,0,Wunderground v.1.15,2013-01-18 01:35:00,
2013-01-17 19:40:00,14.6,7.2,30.51,WNW,291,0.0,1.0,72,0.00,,,0.00,0,Wunderground v.1.15,2013-01-18 01:40:00,
2013-01-17 19:45:00,14.3,6.9,30.51,WNW,291,0.0,1.0,72,0.00,,,0.00,0,Wunderground v.1.15,2013-01-18 01:45:00,
2013-01-17 19:50:00,13.9,6.8,30.51,WNW,290,0.0,0.0,73,0.00,,,0.00,0,Wunderground v.1.15,2013-01-18 01:50:00,
2013-01-17 19:55:00,13.5,6.8,30.52,WNW,290,0.0,0.0,74,0.00,,,0.00,0,Wunderground v.1.15,2013-01-18 01:55:00,
2013-01-17 20:00:00,13.2,6.8,30.52,WNW,290,0.0,0.0,75,0.00,,,0.00,0,Wunderground v.1.15,2013-01-18 02:00:00,
2013-01-17 20:05:00,13.1,6.7,30.52,WNW,291,0.0,0.0,75,0.00,,,0.00,0,Wunderground v.1.15,2013-01-18 02:05:00,
2013-01-17 20:10:00,12.9,6.5,30.53,WNW,291,0.0,0.0,75,0.00,,,0.00,0,Wunderground v.1.15,2013-01-18 02:10:00,
2013-01-17 20:15:00,12.8,6.7,30.53,WNW,291,0.0,2.0,76,0.00,,,0.00,0,Wunderground v.1.15,2013-01-18 02:15:00,
2013-01-17 20:20:00,12.7,6.6,30.53,WNW,291,1.0,1.0,76,0.00,,,0.00,0,Wunderground v.1.15,2013-01-18 02:20:00,
2013-01-17 20:25:00,12.7,6.6,30.53,WNW,291,0.0,4.0,76,0.00,,,0.00,0,Wunderground v.1.15,2013-01-18 02:25:00,
2013-01-17 20:30:00,12.9,6.8,30.53,WNW,291,4.0,4.0,76,0.00,,,0.00,0,Wunderground v.1.15,2013-01-18 02:30:00,
2013-01-17 20:35:00,13.2,7.0,30.53,WNW,291,0.0,5.0,76,0.00,,,0.00,0,Wunderground v.1.15,2013-01-18 02:35:00,
2013-01-17 20:40:00,13.5,7.0,30.53,WNW,292,1.0,4.0,75,0.00,,,0.00,0,Wunderground v.1.15,2013-01-18 02:40:00,
2013-01-17 20:45:00,13.6,7.1,30.53,WNW,292,1.0,4.0,75,0.00,,,0.00,0,Wunderground v.1.15,2013-01-18 02:45:00,
2013-01-17 20:50:00,13.6,6.8,30.53,WNW,292,0.0,2.0,74,0.00,,,0.00,0,Wunderground v.1.15,2013-01-18 02:50:00,
2013-01-17 20:55:00,13.6,6.8,30.53,WNW,292,2.0,4.0,74,0.00,,,0.00,0,Wunderground v.1.15,2013-01-18 02:55:00,
2013-01-17 21:00:00,13.7,6.9,30.53,WNW,292,1.0,4.0,74,0.00,,,0.00,0,Wunderground v.1.15,2013-01-18 03:00:00,
2013-01-17 21:05:00,13.7,6.9,30.54,WNW,292,0.0,4.0,74,0.00,,,0.00,0,Wunderground v.1.15,2013-01-18 03:05:00,
2013-01-17 21:10:00,13.7,6.9,30.53,WNW,292,0.0,1.0,74,0.00,,,0.00,0,Wunderground v.1.15,2013-01-18 03:10:00,
2013-01-17 21:15:00,13.6,6.8,30.54,WNW,292,0.0,1.0,74,0.00,,,0.00,0,Wunderground v.1.15,2013-01-18 03:15:00,
2013-01-17 21:20:00,13.4,6.7,30.54,WNW,292,0.0,0.0,74,0.00,,,0.00,0,Wunderground v.1.15,2013-01-18 03:20:00,
2013-01-17 21:25:00,13.2,6.5,30.54,WNW,292,1.0,2.0,74,0.00,,,0.00,0,Wunderground v.1.15,2013-01-18 03:25:00,
2013-01-17 21:30:00,13.1,6.7,30.54,WNW,292,1.0,1.0,75,0.00,,,0.00,0,Wunderground v.1.15,2013-01-18 03:30:00,
2013-01-17 21:35:00,13.1,6.7,30.54,WNW,292,1.0,4.0,75,0.00,,,0.00,0,Wunderground v.1.15,2013-01-18 03:35:00,
2013-01-17 21:40:00,12.9,6.5,30.53,WNW,292,0.0,2.0,75,0.00,,,0.00,0,Wunderground v.1.15,2013-01-18 03:40:00,
2013-01-17 21:45:00,12.7,6.3,30.53,WNW,292,0.0,2.0,75,0.00,,,0.00,0,Wunderground v.1.15,2013-01-18 03:45:00,
2013-01-17 21:50:00,12.6,6.2,30.53,WNW,292,0.0,0.0,75,0.00,,,0.00,0,Wunderground v.1.15,2013-01-18 03:50:00,
2013-01-17 21:55:00,12.5,6.4,30.53,WNW,292,0.0,4.0,76,0.00,,,0.00,0,Wunderground v.1.15,2013-01-18 03:55:00,
2013-01-17 22:00:00,12.4,6.3,30.53,WNW,292,1.0,1.0,76,0.00,,,0.00,0,Wunderground v.1.15,2013-01-18 04:00:00,
2013-01-17 22:05:00,12.2,6.4,30.53,WNW,292,2.0,4.0,77,0.00,,,0.00,0,Wunderground v.1.15,2013-01-18 04:05:00,
2013-01-17 22:10:00,12.2,6.4,30.53,WNW,292,0.0,4.0,77,0.00,,,0.00,0,Wunderground v.1.15,2013-01-18 04:10:00,
2013-01-17 22:15:00,12.1,6.6,30.53,WNW,292,2.0,4.0,78,0.00,,,0.00,0,Wunderground v.1.15,2013-01-18 04:15:00,
2013-01-17 22:20:00,12.1,6.6,30.53,WNW,292,2.0,5.0,78,0.00,,,0.00,0,Wunderground v.1.15,2013-01-18 04:20:00,
2013-01-17 22:25:00,12.0,6.2,30.52,WNW,292,0.0,5.0,77,0.00,,,0.00,0,Wunderground v.1.15,2013-01-18 04:25:00,
2013-01-17 22:30:00,11.7,5.9,30.52,WNW,292,0.0,0.0,77,0.00,,,0.00,0,Wunderground v.1.15,2013-01-18 04:30:00,
2013-01-17 22:35:00,11.4,5.6,30.52,WNW,292,0.0,0.0,77,0.00,,,0.00,0,Wunderground v.1.15,2013-01-18 04:35:00,
2013-01-17 22:40:00,11.0,5.2,30.52,WNW,292,0.0,0.0,77,0.00,,,0.00,0,Wunderground v.1.15,2013-01-18 04:40:00,
2013-01-17 22:45:00,10.5,5.0,30.52,WNW,292,0.0,2.0,78,0.00,,,0.00,0,Wunderground v.1.15,2013-01-18 04:45:00,
2013-01-17 22:50:00,10.1,4.9,30.52,WNW,292,0.0,0.0,79,0.00,,,0.00,0,Wunderground v.1.15,2013-01-18 04:50:00,
2013-01-17 22:55:00,9.8,4.9,30.52,WNW,292,1.0,5.0,80,0.00,,,0.00,0,Wunderground v.1.15,2013-01-18 04:55:00,
2013-01-17 23:00:00,9.8,5.1,30.52,WNW,292,0.0,2.0,81,0.00,,,0.00,0,Wunderground v.1.15,2013-01-18 05:00:00,
2013-01-17 23:01:00,9.8,5.1,30.52,WNW,292,0.0,2.0,81,0.00,,,0.00,0,Wunderground v.1.15,2013-01-18 05:01:00,
2013-01-17 23:02:00,9.8,5.4,30.52,WNW,292,0.0,2.0,82,0.00,,,0.00,0,Wunderground v.1.15,2013-01-18 05:02:00,
2013-01-17 23:07:00,9.8,5.1,30.52,WNW,293,1.0,4.0,81,0.00,,,0.00,0,Wunderground v.1.15,2013-01-18 05:07:00,
2013-01-17 23:12:00,9.7,5.0,30.53,WNW,293,1.0,1.0,81,0.00,,,0.00,0,Wunderground v.1.15,2013-01-18 05:12:00,
2013-01-17 23:17:00,10.0,5.9,30.54,WNW,293,0.0,4.0,83,0.00,,,0.00,0,Wunderground v.1.15,2013-01-18 05:17:00,
2013-01-17 23:22:00,10.7,6.6,30.54,WNW,293,0.0,2.0,83,0.00,,,0.00,0,Wunderground v.1.15,2013-01-18 05:22:00,
2013-01-17 23:27:00,10.9,6.5,30.54,WNW,293,1.0,2.0,82,0.00,,,0.00,0,Wunderground v.1.15,2013-01-18 05:27:00,
2013-01-17 23:32:00,10.9,6.5,30.55,WNW,293,0.0,1.0,82,0.00,,,0.00,0,Wunderground v.1.15,2013-01-18 05:32:00,
2013-01-17 23:37:00,10.8,6.4,30.55,WNW,293,2.0,2.0,82,0.00,,,0.00,0,Wunderground v.1.15,2013-01-18 05:37:00,
2013-01-17 23:42:00,10.7,6.3,30.55,WNW,293,0.0,1.0,82,0.00,,,0.00,0,Wunderground v.1.15,2013-01-18 05:42:00,
2013-01-17 23:47:00,10.6,6.2,30.54,WNW,293,0.0,1.0,82,0.00,,,0.00,0,Wunderground v.1.15,2013-01-18 05:47:00,
2013-01-17 23:52:00,10.6,6.2,30.54,WNW,293,0.0,0.0,82,0.00,,,0.00,0,Wunderground v.1.15,2013-01-18 05:52:00,
2013-01-17 23:57:00,10.6,6.2,30.54,WNW,293,0.0,0.0,82,0.00,,,0.00,0,Wunderground v.1.15,2013-01-18 05:57:00,